Content
SEND FEEDBACK

Daily
Averages
Monthly
Summary
United States of America

ITHACA, NEW YORK


Home > North America > United States > New York
Elevation: 1094 feet     Latitude: 42 29N     Longitude: 076 28W

WEATHER
 
SELECT A DAY
Number of Records: 162,034;   Date Range: 1/1/95 - 10/21/14
 
SHARE

PRINT THIS DATA

[ ← Previous Day ]
WEATHER ALMANAC - JUNE 26, 2013
[ Next Day → ]
[ °C ]   °F
We're sorry. There is no daily almanac available for Ithaca, New York on June 26, 2013.
WEATHER BY HOUR - JUNE 26, 2013
[ °C ]   °F
Local TimeTemperatureDewpointHumidityBarometerVisibilityWind DirectionWind SpeedGust SpeedPrecipitationEventsConditions
1:56 AM72.0 °F63.0 °F73 %29.84 in10.0 miWSW (240°)5.8 mphOvercast
2:56 AM70.9 °F63.9 °F78 %29.83 in10.0 miSW (230°)9.2 mphOvercast
3:56 AM70.0 °F63.0 °F78 %29.83 in10.0 miSW (230°)4.6 mphOvercast
4:32 AM69.8 °F62.6 °F78 %29.85 in10.0 miSW (220°)6.9 mphOvercast
4:56 AM68.9 °F63.0 °F81 %29.84 in10.0 miSSW (210°)6.9 mphOvercast
5:56 AM68.0 °F63.0 °F84 %29.84 in10.0 miCalmScattered Clouds
6:21 AM68.0 °F62.6 °F83 %29.87 in10.0 miCalmScattered Clouds
6:56 AM68.0 °F63.9 °F87 %29.85 in10.0 miSE (130°)3.5 mphMostly Cloudy
7:35 AM69.8 °F64.4 °F83 %29.88 in10.0 miCalmMostly Cloudy
7:56 AM70.9 °F63.9 °F78 %29.86 in10.0 miCalmMostly Cloudy
8:56 AM73.9 °F64.9 °F73 %29.86 in10.0 miWest (270°)6.9 mphMostly Cloudy
9:56 AM73.9 °F63.9 °F71 %29.85 in10.0 miNW (310°)4.6 mphMostly Cloudy
10:56 AM72.9 °F64.9 °F76 %29.84 in10.0 miWNW (300°)3.5 mphMostly Cloudy
11:56 AM73.9 °F64.9 °F73 %29.87 in10.0 miNW (310°)6.9 mphOvercast
12:56 PM77.0 °F64.9 °F66 %29.88 in10.0 miWSW (240°)5.8 mphMostly Cloudy
1:56 PM77.9 °F65.8 °F66 %29.86 in10.0 miSW (230°)8.1 mphMostly Cloudy
2:56 PM81.0 °F64.9 °F58 %29.85 in10.0 miWSW (240°)8.1 mphMostly Cloudy
3:56 PM81.9 °F64.9 °F56 %29.82 in10.0 miWest (270°)4.6 mphMostly Cloudy
4:56 PM82.9 °F65.8 °F56 %29.82 in10.0 miWSW (240°)8.1 mphMostly Cloudy
5:56 PM82.9 °F64.9 °F54 %29.82 in10.0 miWSW (240°)3.5 mphScattered Clouds
6:56 PM77.0 °F64.9 °F66 %29.83 in10.0 miNNE (20°)5.8 mphScattered Clouds
7:56 PM73.9 °F66.9 °F79 %29.82 in10.0 miCalmPartly Cloudy
8:56 PM68.9 °F65.8 °F90 %29.83 in10.0 miCalmClear
9:56 PM66.9 °F64.9 °F93 %29.84 in10.0 miCalmClear
10:56 PM64.9 °F63.9 °F96 %29.86 in6.0 miCalmClear
11:56 PM64.9 °F63.9 °F96 %29.84 in8.0 miCalmClear
Hourly data recorded from KITH, located miles away from Ithaca, New York







STORIES FROM OUR PARTNERS